Location: Camps Bay
(33.9517°S, 18.3844°E)
Time: 13:46:08
(UTC+00:00)

NOSS 2-2 (E) - Pass Details

Date: 18 January 2020
Orbit: 484 x 1723 km, 63.3° (Epoch: 03 February)

Event Time Altitude Azimuth Distance (km) Brightness Sun altitude
Rises 01:33:48 0° 216° (SW) 4,117 7.9 -23.8°
Reaches altitude 10° 01:37:01 10° 220° (SW) 2,937 7.1 -23.4°
Maximum altitude 01:43:30 50° 292° (WNW) 1,072 4.3 -22.5°
Enters shadow 01:43:51 49° 305° (NW) 1,066 4.3 -22.4°
